CW9181 Weather Reports


time (UTC)temp
C
wind
direction
speed
KPH
gust
KPH
rain 1hr
cm
rain 24hr
cm
rain mn
cm
humidity
%
barometer
mb
20260506091814 15 143 1.6 8.0 0.00 0.00 0.00 80 1018.7
20260506090800 15 116 4.8 11.3 0.00 0.00 0.00 80 1018.7
20260506085817 15 167 4.8 9.7 0.00 0.00 0.00 80 1018.6
20260506084822 15 143 4.8 8.0 0.00 0.00 0.00 80 1018.7
20260506083803 15 114 4.8 6.4 0.00 0.00 0.00 80 1018.7
20260506082822 15 139 0.0 4.8 0.00 0.00 0.00 80 1018.8
20260506081804 15 140 1.6 6.4 0.00 0.00 0.00 80 1018.8
20260506080807 15 158 0.0 4.8 0.00 0.00 0.00 80 1018.7
20260506072808 15 182 0.0 3.2 0.00 0.03 0.00 80 1018.3
20260506071814 15 180 3.2 6.4 0.00 0.03 0.00 80 1018.3
20260506070835 15 186 1.6 4.8 0.00 0.03 0.00 79 1018.2
20260506061816 15 180 0.0 4.8 0.00 0.13 0.03 79 1017.8
20260506060819 15 198 1.6 8.0 0.00 0.13 0.03 78 1017.7
20260506050818 16 184 4.8 11.3 0.00 0.38 0.03 77 1017.3
20260506044802 16 182 3.2 6.4 0.00 0.66 0.03 77 1017.0
20260506043821 16 195 3.2 8.0 0.00 0.66 0.03 78 1017.0
20260506042811 16 180 0.0 6.4 0.00 0.66 0.03 77 1016.9
20260506041829 16 157 0.0 6.4 0.00 0.66 0.03 77 1016.6
20260506040803 16 161 4.8 11.3 0.00 0.66 0.03 77 1016.5
20260506035837 17 132 4.8 11.3 0.00 1.24 0.03 76 1016.3
20260506034814 17 126 4.8 8.0 0.00 1.24 0.03 76 1016.4
20260506033828 17 139 4.8 8.0 0.00 1.24 0.03 75 1016.4
20260506032805 17 141 3.2 9.7 0.00 1.24 0.03 75 1016.3
20260506031804 17 110 3.2 9.7 0.00 1.24 0.03 74 1016.2
20260506030819 17 168 0.0 4.8 0.00 1.24 0.03 73 1015.9
20260506025814 17 136 4.8 11.3 0.00 1.47 0.03 73 1015.8
20260506024809 17 172 4.8 12.9 0.00 1.47 0.03 72 1015.7
20260506023842 17 155 3.2 12.9 0.00 1.47 0.03 72 1015.6
20260506022818 17 184 6.4 16.1 0.00 1.47 0.03 72 1015.4
20260506021818 17 165 4.8 12.9 0.00 1.47 0.03 72 1015.2
20260506020811 17 120 8.0 17.7 0.00 1.47 0.03 71 1015.2
20260506015811 17 124 8.0 12.9 0.00 1.70 0.03 70 1015.2
20260506014839 18 182 8.0 16.1 0.00 1.70 0.03 69 1015.2
20260506013815 18 97 8.0 12.9 0.00 1.70 0.03 68 1015.1
20260506012817 18 101 9.7 12.9 0.00 1.70 0.03 68 1015.1
20260506011842 18 127 4.8 16.1 0.00 1.70 0.03 69 1015.2
20260506010819 18 144 4.8 16.1 0.00 1.70 0.03 68 1015.2
20260506005817 18 118 4.8 11.3 0.00 1.80 0.03 67 1015.0
20260506004817 18 96 4.8 9.7 0.00 1.80 0.03 67 1014.8
20260506003814 18 112 8.0 14.5 0.00 1.80 0.03 67 1014.8
20260506002816 18 159 3.2 11.3 0.00 1.80 0.03 67 1014.7
20260506001818 18 145 8.0 14.5 0.00 1.80 0.03 66 1014.7
20260506000811 18 103 6.4 12.9 0.00 1.80 0.03 65 1014.7
20260505235812 18 136 3.2 8.0 0.00 2.08 0.03 65 1014.7
20260505234814 18 157 3.2 8.0 0.00 2.08 0.03 64 1014.7
20260505233813 18 202 1.6 12.9 0.00 2.08 0.03 65 1014.7
20260505232812 19 184 4.8 11.3 0.00 2.08 0.03 64 1014.7
20260505231809 19 172 3.2 8.0 0.00 2.08 0.03 62 1014.6
20260505230807 19 114 4.8 8.0 0.00 2.08 0.03 62 1014.7
20260505225808 19 34 3.2 4.8 0.00 2.24 0.03 62 1014.7
20260505224801 19 143 1.6 6.4 0.00 2.24 0.03 63 1014.7
20260505223816 19 170 4.8 8.0 0.00 2.24 0.03 62 1014.7
20260505222818 18 178 0.0 4.8 0.00 2.24 0.03 64 1014.9
20260505221842 18 324 1.6 6.4 0.00 2.24 0.03 64 1015.0
20260505220816 18 57 1.6 9.7 0.00 2.24 0.03 65 1015.1
20260505215834 18 277 4.8 9.7 0.00 2.31 0.03 66 1015.1
20260505214831 18 250 3.2 6.4 0.00 2.31 0.03 65 1015.2
20260505213810 18 12 3.2 9.7 0.00 2.31 0.03 65 1015.3
20260505212833 19 349 3.2 11.3 0.00 2.31 0.03 65 1015.3
20260505211811 18 197 4.8 12.9 0.00 2.31 0.03 68 1015.3
20260505210803 18 116 3.2 12.9 0.00 2.31 0.03 67 1015.3
20260505205820 18 101 3.2 8.0 0.00 2.31 0.03 68 1015.4
20260505204820 17 156 4.8 9.7 0.00 2.31 0.03 71 1015.6
20260505203820 17 119 3.2 8.0 0.00 2.31 0.03 71 1015.5
20260505202801 17 191 3.2 9.7 0.00 2.31 0.03 74 1015.7
20260505201819 17 287 3.2 6.4 0.00 2.31 0.03 74 1015.7
20260505200813 16 228 4.8 8.0 0.00 2.31 0.03 74 1015.8
20260505195809 16 181 3.2 8.0 0.00 2.34 0.03 75 1015.8
20260505194806 16 181 4.8 9.7 0.00 2.34 0.03 76 1015.8
20260505193803 16 215 4.8 8.0 0.00 2.34 0.03 76 1015.8
20260505192819 16 245 4.8 9.7 0.00 2.34 0.03 74 1015.8
20260505191801 17 232 3.2 6.4 0.00 2.34 0.03 76 1015.9
20260505190840 16 102 4.8 8.0 0.00 2.34 0.03 74 1015.9
20260505185813 16 138 6.4 8.0 0.00 2.34 0.03 77 1015.9
20260505184837 16 96 3.2 6.4 0.00 2.34 0.03 78 1015.8
20260505183813 16 95 3.2 9.7 0.00 2.34 0.03 79 1015.7
20260505182814 15 128 4.8 9.7 0.00 2.34 0.03 80 1015.9
20260505181813 15 159 1.6 9.7 0.00 2.34 0.03 80 1015.8
20260505180830 15 172 3.2 8.0 0.00 2.34 0.03 82 1015.7
20260505175830 15 182 1.6 6.4 0.00 2.41 0.03 83 1015.6
20260505174812 15 124 3.2 6.4 0.00 2.41 0.03 84 1015.5
20260505173813 15 104 3.2 6.4 0.00 2.41 0.03 86 1015.5
20260505172814 13 123 4.8 11.3 0.00 2.41 0.03 88 1015.5
20260505171816 13 236 6.4 8.0 0.00 2.41 0.03 90 1015.5
20260505170814 13 137 3.2 6.4 0.00 2.41 0.03 91 1015.5
20260505165813 13 99 3.2 9.7 0.00 2.41 0.03 92 1015.5
20260505164814 12 135 4.8 9.7 0.00 2.41 0.03 92 1015.5
20260505163815 12 123 1.6 11.3 0.00 2.41 0.03 93 1015.4
20260505162810 12 116 4.8 11.3 0.00 2.41 0.03 93 1015.4
20260505161815 12 151 6.4 11.3 0.00 2.41 0.03 93 1015.4
20260505160817 12 162 6.4 12.9 0.00 2.41 0.03 94 1015.4
20260505152817 11 164 4.8 11.3 0.00 2.41 0.03 94 1015.3
20260505151820 11 155 4.8 11.3 0.00 2.41 0.03 94 1015.3
20260505150801 11 122 3.2 8.0 0.00 2.41 0.03 94 1015.2
20260505124804 11 141 3.2 9.7 0.00 2.41 0.03 94 1014.3
20260505123828 11 147 3.2 9.7 0.00 2.41 0.03 94 1014.3
20260505122815 11 174 4.8 11.3 0.00 2.41 0.03 94 1014.2
20260505121816 11 171 3.2 8.0 0.00 2.41 0.03 94 1014.1
20260505120817 11 168 4.8 8.0 0.00 2.41 0.03 94 1014.1
20260505115803 11 167 4.8 9.7 0.00 2.41 0.03 94 1014.3
20260505114820 11 166 3.2 9.7 0.00 2.41 0.03 94 1014.3
20260505113803 11 147 3.2 8.0 0.00 2.41 0.03 94 1014.4
20260505112828 11 168 4.8 9.7 0.00 2.41 0.03 94 1014.5
20260505111808 11 161 3.2 12.9 0.00 2.41 0.03 93 1014.5
20260505110816 11 182 3.2 6.4 0.00 2.41 0.03 93 1014.3
20260505101810 11 153 4.8 12.9 0.00 2.41 0.03 93 1014.3
20260505100811 11 147 8.0 14.5 0.00 2.41 0.03 93 1014.3
20260505095830 11 162 6.4 14.5 0.00 2.41 0.03 93 1014.3
20260505094813 11 161 3.2 11.3 0.00 2.41 0.03 93 1014.4
20260505093829 11 185 3.2 6.4 0.00 2.41 0.03 93 1014.6
20260505092807 11 146 3.2 6.4 0.00 2.41 0.03 93 1014.8